Terminal Aerodrome Forecast
Issued by NWS Melbourne, FL

Home | Current Version | Previous Version | Text Only | Print | Product List | Glossary On
Versions: 1 2 3 4 5 6 7 8 9 10 11 12 13 14 15 16 17 18 19 20 21 22 23 24
000
FTUS42 KMLB 241451 AAA
TAFMCO
TAF AMD
KMCO 241451Z 2415/2512 04010KT P6SM VCTS SCT035CB BKN080
     FM241600 05012G18KT P6SM VCSH SCT040 BKN120
      TEMPO 2416/2419 TS BKN040CB BKN070
     FM242000 05015G22KT P6SM VCTS SCT045CB SCT070 BKN250=

USA.gov is the U.S. government's official web portal to all federal, state and local government web resources and services.